TimeEST,TemperatureF,Dew PointF,Humidity,Sea Level PressureIn,VisibilityMPH,Wind Direction,Wind SpeedMPH,Gust SpeedMPH,PrecipitationIn,Events,Conditions,WindDirDegrees,DateUTC
12:15 AM,41.4,32.0,69,30.19,10.0,SSE,4.6,-,N/A,Rain,Light Rain,150,2013-01-06 05:15:00
12:35 AM,41.2,32.5,71,30.20,10.0,South,3.5,-,N/A,,Overcast,170,2013-01-06 05:35:00
12:55 AM,41.4,32.0,69,30.19,10.0,South,4.6,-,N/A,,Overcast,170,2013-01-06 05:55:00
1:15 AM,41.9,32.0,68,30.19,10.0,South,4.6,-,N/A,,Overcast,170,2013-01-06 06:15:00
1:35 AM,41.9,32.0,68,30.19,10.0,South,3.5,-,N/A,,Overcast,170,2013-01-06 06:35:00
1:55 AM,41.9,32.0,68,30.18,10.0,SSE,3.5,-,N/A,Rain,Light Rain,160,2013-01-06 06:55:00
2:15 AM,41.4,32.4,70,30.16,10.0,SSE,8.1,-,N/A,,Light Drizzle,150,2013-01-06 07:15:00
2:35 AM,41.0,32.4,71,30.16,10.0,SSE,3.5,-,N/A,Rain,Light Rain,150,2013-01-06 07:35:00
2:55 AM,41.0,32.9,73,30.15,10.0,SSE,3.5,-,N/A,,Mostly Cloudy,160,2013-01-06 07:55:00
3:15 AM,41.0,33.1,73,30.15,10.0,South,4.6,-,N/A,,Overcast,180,2013-01-06 08:15:00
3:35 AM,41.5,32.2,69,30.14,10.0,South,3.5,-,N/A,,Overcast,180,2013-01-06 08:35:00
3:55 AM,41.5,32.5,70,30.14,10.0,SSW,3.5,-,N/A,,Overcast,210,2013-01-06 08:55:00
4:15 AM,41.5,32.4,70,30.14,10.0,Calm,Calm,-,N/A,,Overcast,0,2013-01-06 09:15:00
4:35 AM,41.2,32.9,72,30.13,10.0,Calm,Calm,-,N/A,,Overcast,0,2013-01-06 09:35:00
4:55 AM,40.8,33.1,74,30.13,10.0,Calm,Calm,-,N/A,,Overcast,0,2013-01-06 09:55:00
5:15 AM,41.0,32.9,73,30.12,10.0,Calm,Calm,-,N/A,,Overcast,0,2013-01-06 10:15:00
5:35 AM,40.3,33.3,76,30.13,10.0,Calm,Calm,-,N/A,,Mostly Cloudy,0,2013-01-06 10:35:00
5:55 AM,38.8,33.3,80,30.13,10.0,Calm,Calm,-,N/A,,Scattered Clouds,0,2013-01-06 10:55:00
6:15 AM,37.4,32.9,84,30.13,10.0,Calm,Calm,-,N/A,,Clear,0,2013-01-06 11:15:00
6:35 AM,35.1,32.9,92,30.14,10.0,Calm,Calm,-,N/A,,Clear,0,2013-01-06 11:35:00
6:55 AM,34.5,32.2,91,30.14,10.0,Calm,Calm,-,N/A,,Clear,0,2013-01-06 11:55:00
7:15 AM,33.1,32.5,98,30.14,10.0,Calm,Calm,-,N/A,,Clear,0,2013-01-06 12:15:00
7:35 AM,32.0,31.8,99,30.14,10.0,Calm,Calm,-,N/A,,Clear,0,2013-01-06 12:35:00
7:55 AM,31.3,31.3,100,30.14,7.0,Calm,Calm,-,N/A,,Clear,0,2013-01-06 12:55:00
8:15 AM,32.4,32.4,100,30.14,10.0,Calm,Calm,-,N/A,,Clear,0,2013-01-06 13:15:00
8:35 AM,34.2,34.0,99,30.15,10.0,Calm,Calm,-,N/A,,Clear,0,2013-01-06 13:35:00
8:55 AM,35.8,34.5,95,30.15,10.0,Calm,Calm,-,N/A,,Clear,0,2013-01-06 13:55:00
9:15 AM,37.9,35.2,90,30.15,10.0,Calm,Calm,-,N/A,,Clear,0,2013-01-06 14:15:00
9:35 AM,41.4,35.1,78,30.16,10.0,Calm,Calm,-,N/A,,Clear,0,2013-01-06 14:35:00
9:55 AM,43.7,34.7,71,30.16,10.0,Calm,Calm,-,N/A,,Clear,0,2013-01-06 14:55:00
10:15 AM,44.4,34.3,68,30.15,10.0,Calm,Calm,-,N/A,,Clear,0,2013-01-06 15:15:00
10:35 AM,46.4,34.5,63,30.14,10.0,SW,3.5,-,N/A,,Clear,220,2013-01-06 15:35:00
10:55 AM,48.4,34.5,59,30.14,10.0,Calm,Calm,-,N/A,,Clear,0,2013-01-06 15:55:00
11:15 AM,49.5,34.0,55,30.13,10.0,Calm,Calm,-,N/A,,Clear,0,2013-01-06 16:15:00
11:35 AM,50.4,32.5,50,30.11,10.0,Calm,Calm,-,N/A,,Clear,0,2013-01-06 16:35:00
11:55 AM,50.9,32.0,48,30.09,10.0,Calm,Calm,-,N/A,,Clear,0,2013-01-06 16:55:00
12:15 PM,52.7,32.0,45,30.09,10.0,West,4.6,-,N/A,,Clear,260,2013-01-06 17:15:00
12:35 PM,52.7,32.0,45,30.07,10.0,NW,3.5,-,N/A,,Clear,310,2013-01-06 17:35:00
12:55 PM,52.5,32.0,46,30.06,10.0,Calm,Calm,-,N/A,,Clear,0,2013-01-06 17:55:00
1:15 PM,52.9,32.0,45,30.05,10.0,SSW,6.9,-,N/A,,Clear,200,2013-01-06 18:15:00
1:35 PM,53.1,31.6,44,30.05,10.0,NW,3.5,-,N/A,,Clear,320,2013-01-06 18:35:00
1:55 PM,53.8,31.6,43,30.04,10.0,SSW,4.6,-,N/A,,Clear,210,2013-01-06 18:55:00
2:15 PM,54.5,31.8,42,30.04,10.0,West,5.8,-,N/A,,Clear,260,2013-01-06 19:15:00
2:35 PM,54.5,31.8,42,30.04,10.0,Calm,Calm,-,N/A,,Clear,0,2013-01-06 19:35:00
2:55 PM,54.7,31.8,42,30.04,10.0,Calm,Calm,-,N/A,,Scattered Clouds,0,2013-01-06 19:55:00
3:15 PM,55.0,30.7,40,30.03,10.0,WNW,4.6,-,N/A,,Mostly Cloudy,300,2013-01-06 20:15:00
3:35 PM,53.1,30.6,42,30.03,10.0,WSW,3.5,-,N/A,,Scattered Clouds,250,2013-01-06 20:35:00
3:55 PM,52.9,31.1,43,30.03,10.0,Calm,Calm,-,N/A,,Clear,0,2013-01-06 20:55:00
4:15 PM,52.7,30.9,43,30.04,10.0,WNW,3.5,-,N/A,,Clear,290,2013-01-06 21:15:00
4:35 PM,52.0,31.1,45,30.04,10.0,Calm,Calm,-,N/A,,Scattered Clouds,0,2013-01-06 21:35:00
4:55 PM,52.0,30.7,44,30.04,10.0,Calm,Calm,-,N/A,,Mostly Cloudy,0,2013-01-06 21:55:00
5:15 PM,49.8,32.4,51,30.04,10.0,Calm,Calm,-,N/A,,Mostly Cloudy,0,2013-01-06 22:15:00
5:35 PM,47.5,33.4,58,30.04,10.0,Calm,Calm,-,N/A,,Overcast,0,2013-01-06 22:35:00
5:55 PM,47.5,33.1,57,30.05,10.0,Calm,Calm,-,N/A,,Overcast,0,2013-01-06 22:55:00
6:15 PM,46.8,33.3,59,30.06,10.0,Calm,Calm,-,N/A,,Overcast,0,2013-01-06 23:15:00
6:35 PM,46.9,33.1,59,30.06,10.0,Calm,Calm,-,N/A,,Overcast,0,2013-01-06 23:35:00
6:55 PM,48.6,32.0,53,30.07,10.0,Calm,Calm,-,N/A,,Overcast,0,2013-01-06 23:55:00
7:15 PM,47.3,32.2,56,30.08,10.0,Calm,Calm,-,N/A,,Overcast,0,2013-01-07 00:15:00
7:35 PM,47.5,32.0,55,30.08,10.0,NW,4.6,-,N/A,,Overcast,310,2013-01-07 00:35:00
7:55 PM,48.0,32.0,54,30.09,10.0,WNW,3.5,-,N/A,,Overcast,290,2013-01-07 00:55:00
8:15 PM,46.0,33.4,61,30.09,10.0,West,4.6,-,N/A,,Overcast,260,2013-01-07 01:15:00
8:35 PM,48.0,31.1,52,30.09,10.0,West,5.8,-,N/A,,Overcast,280,2013-01-07 01:35:00
8:55 PM,48.6,30.6,50,30.10,10.0,WNW,8.1,-,N/A,,Overcast,290,2013-01-07 01:55:00
9:15 PM,48.4,30.7,51,30.10,10.0,West,5.8,-,N/A,,Overcast,280,2013-01-07 02:15:00
9:35 PM,48.4,30.7,51,30.11,10.0,WNW,5.8,-,N/A,,Overcast,290,2013-01-07 02:35:00
9:55 PM,48.4,30.9,51,30.12,10.0,NW,4.6,-,N/A,,Overcast,310,2013-01-07 02:55:00
10:15 PM,48.2,30.9,51,30.12,10.0,WNW,5.8,-,N/A,,Overcast,290,2013-01-07 03:15:00
10:35 PM,47.8,30.7,52,30.12,10.0,Calm,Calm,-,N/A,,Overcast,0,2013-01-07 03:35:00
10:55 PM,45.7,32.0,59,30.12,10.0,Calm,Calm,-,N/A,,Overcast,0,2013-01-07 03:55:00
11:15 PM,44.6,32.0,61,30.13,10.0,Calm,Calm,-,N/A,,Overcast,0,2013-01-07 04:15:00
11:55 PM,43.2,32.5,66,30.14,10.0,Calm,Calm,-,N/A,,Overcast,0,2013-01-07 04:55:00